Kemsing, United Kingdom
Current Conditions -  °F | °C
As of 8:20 PM on Friday 19 Dec 2014 (Local Time) from EGKB Reporting Station
Clear Clear  
Wind Chill: 37°   Ceiling: Unl
Heat Index: 43°   Visibility: 6mi
Dew Point: 34°   Wind: 12mph
Humidity: 70%   Direction: 250°WSW
Pressure: 30.18"   Gusts: NA
Location:  51.31°N, 0.23°E
Report Text: EGKB 192020Z 25010KT CAVOK 06/01 Q1022
Loading
Personal Weather Stations






























Interactive Weather Map New forecast layout! Learn more

10-Day Weather Forecast

Advertisements
Track Severe Weather on mobile